Simultaneous Nadir Overpasses (SNOs) Predictions

Prediction of SNOs between METOP-A and TERRA Satellite Orbit:

Table of predicted SNOs for the next 14.0 days since TLE Epoch: 4/13/2013
Index Date (METOP-A) Time (METOP-A) Lat,Lon (METOP-A) SZA (METOP-A ) Date (TERRA) Time (TERRA) Lat,Lon (TERRA) SZA (TERRA ) Distance(km) Time Diff (sec)
1 04/14/2013 19:01:54 -81.29, 121.17 105.62 04/14/2013 19:02:50 -81.29, 121.32 105.58 2.42 56
2 04/14/2013 19:52:33 81.30, -70.78 74.46 04/14/2013 19:52:16 81.30, -70.92 74.44 2.35 17
3 04/17/2013 14:36:19 -81.28,-172.55 106.61 04/17/2013 14:37:04 -81.28,-172.42 106.57 2.21 45
4 04/17/2013 15:26:58 81.29, -4.50 73.47 04/17/2013 15:26:30 81.29, -4.68 73.43 3.24 28
5 04/20/2013 10:10:44 -81.29,-105.95 107.53 04/20/2013 10:11:18 -81.28,-105.95 107.52 0.65 34
6 04/
